Weather History for Washington, MO

Change the Weather History Date:

Thursday, November 15, 2012

  Actual Average (KSTL) Record (KSTL)
Temperature  
Mean Temperature 40 °F 47 °F  
Max Temperature 55 °F 56 °F 81 °F (1955)
Min Temperature 26 °F 38 °F 11 °F (1940)
Degree Days  
Heating Degree Days 24 18  
Month to date heating degree days 223  
Since 1 July heating degree days 499  
Cooling Degree Days 0 0  
Month to date cooling degree days 0  
Year to date cooling degree days 1642  
Moisture  
Dew Point 29 °F    
Average Humidity 73    
Maximum Humidity 100    
Minimum Humidity 33    
Precipitation  
Precipitation 0.00 in 0.14 in 1.77 in (1968)
Month to date precipitation 1.90  
Year to date precipitation 36.11  
Snow  
Snow - 0.00 in 0.10 in (1997)
Month to date snowfall 0.2  
Since 1 July snowfall 0.2  
Since 1 September snowfall 0.2  
Snow Depth -    
Sea Level Pressure  
Sea Level Pressure 30.35 in    
Wind  
Wind Speed 0 mph ()    
Max Wind Speed 5 mph    
Max Gust Speed -    
Visibility 9.6 miles    
Events      
T = Trace of Precipitation, MM = Missing Value Source: Averaged Metar Reports

Daily Weather History Graph

Daily Weather History Graph

Search for Another Location

Airport:

Trip Planner

Search our weather history database for the weather conditions in past years. The results will help you decide how hot, cold, wet, or windy it might be!

Date:

Astronomy

Nov. 15, 2012 Rise Set
Actual Time 6:46 AM CST 4:50 PM CST
Civil Twilight 6:18 AM CST 5:18 PM CST
Nautical Twilight 5:46 AM CST 5:50 PM CST
Astronomical Twilight 5:14 AM CST 6:22 PM CST
Moon 8:41 AM CST (11/15) 6:43 PM CST (11/15)
Length of Visible Light 11h 00m
Length of Day
10h 03m
Waxing Crescent, 5% of the Moon is Illuminated
Nov 15
Waxing Crescent
Nov 20
First Quarter
Nov 28
Full
Dec 6
Last Quarter
Dec 13
New

Hourly Weather History & Observations

Time (CST) Temp. Windchill Dew Point Humidity Pressure Visibility Wind Dir Wind Speed Gust Speed Precip Events Conditions
12:15 AM 28.4 °F - 26.6 °F 93% 30.35 in 8.0 mi Calm Calm - N/A   Clear
12:35 AM 28.4 °F - 24.8 °F 86% 30.34 in 10.0 mi Calm Calm - N/A   Clear
12:55 AM 26.6 °F - 26.6 °F 100% 30.34 in 10.0 mi Calm Calm - N/A   Clear
1:15 AM 26.6 °F - 24.8 °F 93% 30.34 in 10.0 mi Calm Calm - N/A   Clear
1:35 AM 26.6 °F - 24.8 °F 93% 30.34 in 10.0 mi Calm Calm - N/A   Clear
1:55 AM 26.6 °F - 24.8 °F 93% 30.34 in 10.0 mi Calm Calm - N/A   Clear
2:15 AM 28.4 °F - 26.6 °F 93% 30.34 in 10.0 mi Calm Calm - N/A   Clear
2:35 AM 26.6 °F - 26.6 °F 100% 30.34 in 10.0 mi Calm Calm - N/A   Clear
2:55 AM 26.6 °F - 24.8 °F 93% 30.34 in 10.0 mi Calm Calm - N/A   Clear
3:15 AM 26.6 °F - 24.8 °F 93% 30.34 in 10.0 mi Calm Calm - N/A   Clear
3:35 AM 26.6 °F - 24.8 °F 93% 30.34 in 10.0 mi Calm Calm - N/A   Clear
3:55 AM 26.6 °F - 24.8 °F 93% 30.34 in 10.0 mi Calm Calm - N/A   Clear
4:15 AM 26.6 °F - 24.8 °F 93% 30.34 in 10.0 mi Calm Calm - N/A   Clear
4:35 AM 26.6 °F - 26.6 °F 100% 30.35 in 10.0 mi Calm Calm - N/A   Clear
4:55 AM 28.4 °F - 26.6 °F 93% 30.35 in 10.0 mi Calm Calm - N/A   Clear
5:15 AM 28.4 °F - 26.6 °F 93% 30.35 in 10.0 mi Calm Calm - N/A   Clear
5:35 AM 26.6 °F - 24.8 °F 93% 30.35 in 10.0 mi Calm Calm - N/A   Clear
5:55 AM 28.4 °F - 26.6 °F 93% 30.35 in 10.0 mi Calm Calm - N/A   Clear
6:15 AM 26.6 °F - 24.8 °F 93% 30.35 in 10.0 mi Calm Calm - N/A   Clear
6:35 AM 28.4 °F - 26.6 °F 93% 30.35 in 10.0 mi Calm Calm - N/A   Clear
6:55 AM 26.6 °F - 26.6 °F 100% 30.35 in 9.0 mi Calm Calm - N/A   Clear
7:15 AM 26.6 °F - 26.6 °F 100% 30.36 in 5.0 mi Calm Calm - N/A   Clear
7:35 AM 26.6 °F - 26.6 °F 100% 30.37 in 7.0 mi Calm Calm - N/A   Clear
8:35 AM 30.2 °F - 28.4 °F 93% 30.38 in 5.0 mi Calm Calm - N/A   Clear
8:55 AM 32.0 °F - 30.2 °F 93% 30.38 in 7.0 mi Calm Calm - N/A   Clear
9:15 AM 35.6 °F - 32.0 °F 87% 30.38 in 9.0 mi Calm Calm - N/A   Clear
9:35 AM 37.4 °F - 28.4 °F 70% 30.38 in 10.0 mi Calm Calm - N/A   Clear
9:55 AM 39.2 °F - 30.2 °F 70% 30.39 in 10.0 mi Calm Calm - N/A   Clear
10:15 AM 39.2 °F - 30.2 °F 70% 30.38 in 10.0 mi Calm Calm - N/A   Clear
10:35 AM 41.0 °F 39.0 °F 30.2 °F 65% 30.38 in 10.0 mi SSE 3.5 mph - N/A   Clear
10:55 AM 41.0 °F 38.0 °F 32.0 °F 70% 30.38 in 10.0 mi SSE 4.6 mph - N/A   Clear
11:15 AM 44.6 °F - 32.0 °F 61% 30.37 in 10.0 mi Calm Calm - N/A   Clear
11:35 AM 44.6 °F - 30.2 °F 57% 30.37 in 10.0 mi Calm Calm - N/A   Clear
11:55 AM 46.4 °F - 30.2 °F 53% 30.36 in 10.0 mi Calm Calm - N/A   Clear
12:15 PM 48.2 °F - 32.0 °F 54% 30.35 in 10.0 mi Calm Calm - N/A   Clear
12:35 PM 48.2 °F - 30.2 °F 50% 30.34 in 10.0 mi Calm Calm - N/A   Clear
12:55 PM 50.0 °F - 32.0 °F 50% 30.33 in 10.0 mi Calm Calm - N/A   Clear
1:15 PM 51.8 °F - 30.2 °F 44% 30.33 in 10.0 mi Calm Calm - N/A   Clear
1:35 PM 53.6 °F - 28.4 °F 38% 30.32 in 10.0 mi Calm Calm - N/A   Clear
1:55 PM 53.6 °F - 28.4 °F 38% 30.32 in 10.0 mi Calm Calm - N/A   Clear
2:15 PM 55.4 °F - 26.6 °F 33% 30.32 in 10.0 mi Calm Calm - N/A   Clear
3:15 PM 53.6 °F - 24.8 °F 33% 30.32 in 10.0 mi Calm Calm - N/A   Clear
3:35 PM 53.6 °F - 28.4 °F 38% 30.32 in 10.0 mi Calm Calm - N/A   Clear
3:55 PM 53.6 °F - 26.6 °F 35% 30.32 in 10.0 mi Calm Calm - N/A   Clear
4:15 PM 53.6 °F - 28.4 °F 38% 30.32 in 10.0 mi Calm Calm - N/A   Clear
4:35 PM 51.8 °F - 32.0 °F 47% 30.32 in 8.0 mi Calm Calm - N/A   Clear
4:55 PM 51.8 °F - 24.8 °F 35% 30.32 in 10.0 mi Calm Calm - N/A   Mostly Cloudy
5:15 PM 51.8 °F - 26.6 °F 38% 30.32 in 10.0 mi Calm Calm - N/A   Mostly Cloudy
5:35 PM 50.0 °F - 32.0 °F 50% 30.33 in 10.0 mi Calm Calm - N/A   Scattered Clouds
5:55 PM 46.4 °F - 33.8 °F 62% 30.33 in 10.0 mi Calm Calm - N/A   Partly Cloudy
6:15 PM 46.4 °F - 33.8 °F 62% 30.33 in 10.0 mi Calm Calm - N/A   Partly Cloudy
6:35 PM 48.2 °F - 28.4 °F 46% 30.33 in 10.0 mi Calm Calm - N/A   Mostly Cloudy
6:55 PM 46.4 °F - 30.2 °F 53% 30.34 in 10.0 mi Calm Calm - N/A   Mostly Cloudy
7:15 PM 44.6 °F - 32.0 °F 61% 30.34 in 10.0 mi Calm Calm - N/A   Scattered Clouds
7:35 PM 42.8 °F - 32.0 °F 66% 30.34 in 10.0 mi Calm Calm - N/A   Mostly Cloudy
7:55 PM 42.8 °F - 32.0 °F 66% 30.34 in 10.0 mi Calm Calm - N/A   Mostly Cloudy
8:15 PM 41.0 °F - 32.0 °F 70% 30.35 in 10.0 mi Calm Calm - N/A   Clear
8:35 PM 39.2 °F - 32.0 °F 75% 30.35 in 10.0 mi Calm Calm - N/A   Clear
8:55 PM 39.2 °F - 32.0 °F 75% 30.35 in 10.0 mi Calm Calm - N/A   Clear
9:15 PM 39.2 °F - 32.0 °F 75% 30.36 in 10.0 mi Calm Calm - N/A   Clear
9:35 PM 39.2 °F - 28.4 °F 65% 30.36 in 10.0 mi Calm Calm - N/A   Clear
9:55 PM 37.4 °F - 32.0 °F 81% 30.37 in 10.0 mi Calm Calm - N/A   Scattered Clouds
10:15 PM 35.6 °F - 32.0 °F 87% 30.37 in 10.0 mi Calm Calm - N/A   Mostly Cloudy
10:35 PM 33.8 °F - 32.0 °F 93% 30.37 in 7.0 mi Calm Calm - N/A   Overcast
10:55 PM 35.6 °F - 32.0 °F 87% 30.38 in 10.0 mi Calm Calm - N/A   Overcast
11:15 PM 35.6 °F - 32.0 °F 87% 30.38 in 10.0 mi Calm Calm - N/A   Overcast
11:35 PM 33.8 °F - 30.2 °F 87% 30.38 in 10.0 mi Calm Calm - N/A   Overcast
11:55 PM 33.8 °F - 30.2 °F 87% 30.38 in 9.0 mi Calm Calm - N/A   Mostly Cloudy